Total_Precipitation_Accumulation
2.47 2.55 2.57 2.65 2.54 2.34 2.29 2.40 2.54 2.35 2.18 2.01 1.83 1.64 1.67 1.66 1.75 1.52 1.45 1.45 1.37 1.26 1.14 1.04 0.99 1.10 1.39 1.75 1.93 1.86 1.92 2.16 2.56 2.93 2.80 2.71 2.61 2.54
2.18 2.25 2.31 2.36 2.37 2.32 2.29 2.31 2.33 2.32 2.23 2.00 1.71 1.47 1.51 1.58 1.75 1.49 1.54 1.72 1.58 1.36 1.11 1.05 1.01 0.99 1.07 1.21 1.32 1.25 1.20 1.30 1.63 2.29 2.54 2.51 2.51 2.58
1.89 1.92 2.05 2.14 2.34 2.37 2.33 2.29 2.27 2.20 2.10 2.00 1.74 1.54 1.50 1.60 1.67 1.55 1.57 1.63 1.53 1.43 1.21 1.10 1.00 1.04 1.07 1.10 1.18 1.11 0.97 0.91 1.00 1.27 1.64 1.84 2.02 2.26
1.67 1.70 1.82 1.90 2.06 2.17 2.27 2.17 2.17 2.15 2.14 2.11 1.88 1.68 1.59 1.60 1.68 1.63 1.52 1.50 1.50 1.55 1.35 1.22 1.10 1.02 1.08 1.07 1.17 1.23 1.13 0.97 0.89 0.93 1.09 1.28 1.50 1.72
1.43 1.50 1.58 1.65 1.78 1.89 1.99 2.08 2.10 2.05 2.14 2.12 1.92 1.73 1.57 1.51 1.57 1.53 1.48 1.54 1.44 1.52 1.44 1.31 1.24 1.13 1.12 1.12 1.11 1.21 1.22 1.12 0.96 0.92 1.00 1.11 1.22 1.36
1.18 1.18 1.22 1.27 1.40 1.54 1.65 1.81 1.97 2.10 2.17 2.19 2.04 1.78 1.58 1.51 1.58 1.63 1.62 1.53 1.53 1.43 1.44 1.41 1.38 1.32 1.22 1.20 1.11 1.10 1.18 1.19 1.04 0.96 0.94 0.99 1.01 1.04
1.24 1.11 1.01 1.04 1.17 1.26 1.35 1.61 1.81 1.98 2.10 2.16 2.06 1.87 1.69 1.59 1.55 1.55 1.63 1.71 1.71 1.55 1.50 1.41 1.36 1.20 1.08 1.11 1.10 1.05 1.03 1.05 0.98 0.89 0.82 0.76 0.78 0.84
1.23 1.19 1.16 1.13 1.03 0.98 1.06 1.23 1.48 1.68 1.85 1.95 1.97 1.79 1.61 1.57 1.61 1.62 1.62 1.68 1.73 1.59 1.53 1.60 1.53 1.39 1.22 1.10 1.16 1.09 1.03 1.01 1.01 0.99 0.91 0.84 0.81 0.82
1.20 1.19 1.21 1.18 1.24 1.09 1.04 1.03 1.06 1.25 1.51 1.70 1.71 1.62 1.67 1.61 1.57 1.52 1.51 1.51 1.54 1.56 1.56 1.59 1.57 1.44 1.26 1.20 1.28 1.21 1.15 1.09 1.06 1.08 1.06 0.98 0.90 0.84
1.30 1.31 1.36 1.38 1.31 1.42 1.37 1.23 1.11 1.10 1.23 1.18 1.25 1.52 1.64 1.67 1.66 1.66 1.69 1.60 1.53 1.53 1.47 1.49 1.41 1.35 1.23 1.15 1.21 1.15 1.09 1.06 1.04 1.04 1.08 1.10 1.09 1.05
1.33 1.31 1.34 1.33 1.56 1.64 1.49 1.40 1.28 1.19 1.37 1.42 1.43 1.49 1.57 1.57 1.53 1.58 1.63 1.58 1.51 1.47 1.37 1.28 1.22 1.30 1.34 1.24 1.20 1.26 1.21 1.13 1.08 1.09 1.10 1.11 1.17 1.19
1.41 1.34 1.51 1.44 1.46 1.43 1.32 1.46 1.40 1.27 1.19 1.16 1.17 1.24 1.27 1.32 1.38 1.35 1.47 1.51 1.43 1.45 1.32 1.26 1.22 1.29 1.35 1.25 1.13 1.11 1.17 1.23 1.19 1.13 1.15 1.16 1.18 1.12
1.35 1.36 1.32 1.46 1.30 1.26 1.26 1.31 1.44 1.40 1.36 1.37 1.29 1.22 1.18 1.17 1.15 1.19 1.29 1.38 1.41 1.40 1.26 1.22 1.27 1.30 1.24 1.13 1.10 1.01 0.94 0.98 1.01 0.98 0.99 1.06 1.12 1.08
1.18 1.08 1.09 1.22 1.09 1.06 1.04 1.14 1.32 1.34 1.27 1.32 1.28 1.20 1.14 1.10 1.08 1.10 1.19 1.24 1.25 1.26 1.28 1.25 1.25 1.27 1.25 1.08 1.02 1.01 0.98 0.94 0.94 0.92 0.87 1.01 1.04 1.09
1.00 1.02 0.96 0.94 0.94 0.87 0.91 1.04 1.10 1.22 1.30 1.29 1.16 1.06 1.07 1.11 1.13 1.12 1.11 1.16 1.18 1.15 1.14 1.13 1.18 1.25 1.30 1.18 1.05 1.01 1.03 1.04 1.00 0.98 0.97 0.94 0.91 0.94
0.81 0.75 0.74 0.77 0.81 0.81 0.81 0.82 0.89 1.12 1.31 1.27 1.15 1.07 1.08 1.12 1.20 1.22 1.20 1.15 1.17 1.16 1.15 1.14 1.13 1.17 1.16 1.10 1.10 1.08 1.06 1.06 1.04 1.08 1.10 1.06 0.99 0.91
0.95 0.85 0.78 0.75 0.75 0.77 0.77 0.82 0.95 1.09 1.22 1.16 1.15 1.11 1.10 1.16 1.20 1.24 1.32 1.30 1.22 1.14 1.19 1.26 1.32 1.32 1.26 1.20 1.18 1.11 1.13 1.10 1.11 1.16 1.18 1.15 1.06 0.96
0.97 0.92 0.93 0.92 0.90 0.88 0.86 0.82 0.84 0.94 1.04 1.11 1.12 1.13 1.13 1.13 1.12 1.15 1.23 1.28 1.25 1.18 1.14 1.19 1.33 1.47 1.47 1.34 1.18 1.12 1.19 1.19 1.20 1.24 1.23 1.16 1.05 0.98
0.84 0.85 0.88 0.86 0.85 0.86 0.85 0.84 0.83 0.83 0.91 1.02 1.15 1.23 1.25 1.25 1.24 1.20 1.18 1.21 1.18 1.15 1.13 1.13 1.23 1.37 1.47 1.35 1.15 1.03 1.08 1.15 1.20 1.20 1.19 1.13 1.01 0.93
0.70 0.77 0.79 0.79 0.78 0.80 0.79 0.78 0.78 0.80 0.84 0.90 1.00 1.13 1.29 1.38 1.39 1.36 1.32 1.31 1.29 1.21 1.18 1.16 1.16 1.23 1.35 1.31 1.16 1.01 1.01 1.09 1.15 1.14 1.08 1.06 1.02 1.03
0.52 0.61 0.65 0.66 0.68 0.70 0.73 0.78 0.82 0.83 0.84 0.86 0.89 0.93 1.04 1.21 1.31 1.36 1.43 1.53 1.49 1.38 1.32 1.26 1.23 1.31 1.28 1.29 1.19 0.94 0.89 0.95 1.01 1.05 1.09 1.14 1.10 1.01
0.51 0.54 0.58 0.61 0.65 0.68 0.71 0.74 0.78 0.81 0.85 0.88 0.89 0.94 1.00 1.07 1.16 1.23 1.28 1.36 1.42 1.43 1.40 1.34 1.31 1.36 1.36 1.40 1.27 1.04 0.95 0.94 0.96 1.05 1.11 1.20 1.18 1.06
0.52 0.52 0.53 0.56 0.59 0.65 0.76 0.81 0.80 0.81 0.87 0.94 1.02 1.05 1.08 1.12 1.12 1.17 1.21 1.26 1.32 1.32 1.32 1.33 1.29 1.27 1.27 1.26 1.27 1.21 1.10 1.04 1.02 1.00 0.96 1.07 1.11 1.02